Погода в Белках

Украина / Закарпатская область     48°19′46″N   23°08′22″E
темп.,
°C
ветер,
м/с
пор.,
м/с
влажн.,
%
обл.,
%
осадки,
мм/ч
давл.,
гПа
погр.,
м
29 января, сб
сб2923:00−1ссз119842 0.1 102030
02:00−7ссв229435 0.1 102213
05:00−9ссв119311 0.0 102413
08:00−10ссв22926 0.0 102718
11:00−3сз117999 0.0 1028158
14:00−2юз218112 0.0 1027353
17:00−6вюв229693 0.0 102611
20:00−7вюв2296100 0.0 102525
30 января, вс
вс3023:00−5юв3897100 1.8 1021379
02:00−4ююв2698100 7.4 1018315
05:00−3юв2798100 6.6 1014386
08:00−2юв2598100 12.1 1010226
11:00−1ююз0799100 3.6 1008391
14:00+1з51394100 4.1 1007895
17:000з71497100 1.8 1006985
20:00+1зсз7148396 3.0 1008934
31 января, пн
пн3123:000з5138490 0.3 1010699
02:00−1з5128578 0.5 1011523
05:00−2з4128695 0.3 1013489
08:00−7ююз119749 0.3 101413
11:00−3ююз229298 0.0 1012193
14:00−1ююз2595100 0.2 1011550
17:00−2ююв2497100 0.4 1009196
20:00−2вюв1298100 0.9 100989
1 февраля, вт
вт123:00−2юв2398100 1.2 1009130
02:00−3юв2298100 3.1 1008107
05:00−4в229898 0.9 100854
08:00−7всв229784 1.1 100915
11:00−2вюв119581 0.3 1009194
14:00−1юз1197100 0.3 1008271
17:00−1зюз1196100 0.1 100974
20:00−2зюз1197100 0.2 101023
2 февраля, ср
ср223:00−2зюз1191100 0.0 101017
02:00−3ююв2292100 0.1 100839
05:00−3ююв2798100 0.7 1007419
08:00−3ююв31098100 2.9 1005635
11:00−2ю31097100 5.6 1003701
14:00−1ю3999100 9.6 1002689
17:00−1юв2499100 2.8 1003271
20:00−3в119999 3.7 100510